EW4036 Weather Reports


Display with metric or nautical units.
time (UTC)temp
F
wind
direction
speed
MPH
gust
MPH
rain 1hr
in
rain 24hr
in
rain mn
in
humidity
%
barometer
mb
20260505010137 43 242 10.0 15.0 0.00 0.09 0.00 90 1005.2
20260505004545 43 216 8.0 15.0 0.00 0.09 0.00 90 1005.1
20260505003038 43 244 8.0 12.0 0.00 0.09 0.00 89 1005.1
20260505001540 44 229 10.0 16.0 0.00 0.09 0.00 89 1004.9
20260505000135 44 225 9.0 17.0 0.00 0.09 0.00 89 1004.8
20260504234603 44 213 10.0 17.0 0.00 0.09 0.00 89 1004.9
20260504233038 44 243 12.0 16.0 0.00 0.09 0.00 88 1004.8
20260504231548 44 235 11.0 20.0 0.00 0.09 0.00 88 1004.8
20260504230037 44 229 10.0 16.0 0.00 0.09 0.00 87 1004.8
20260504224540 44 226 9.0 17.0 0.00 0.09 0.00 87 1004.9
20260504223036 45 229 11.0 19.0 0.00 0.09 0.00 86 1004.9
20260504221542 45 213 11.0 18.0 0.00 0.09 0.00 85 1004.9
20260504220135 45 202 10.0 19.0 0.00 0.09 0.00 83 1004.8
20260504214539 46 221 13.0 21.0 0.00 0.09 0.09 82 1004.8
20260504213037 46 234 8.0 18.0 0.00 0.09 0.09 80 1004.8
20260504211541 46 204 12.0 21.0 0.00 0.09 0.09 78 1004.9
20260504210036 47 220 12.0 16.0 0.00 0.09 0.09 75 1004.9
20260504204618 47 232 13.0 18.0 0.00 0.09 0.09 72 1004.9
20260504203135 47 221 9.0 17.0 0.00 0.09 0.09 65 1004.9
20260504201540 48 194 14.0 20.0 0.00 0.09 0.09 59 1004.8
20260504200050 49 223 12.0 18.0 0.00 0.09 0.09 55 1004.8
20260504194548 49 216 11.0 17.0 0.00 0.09 0.09 52 1004.8
20260504193138 50 235 10.0 15.0 0.00 0.09 0.09 52 1004.8
20260504191537 50 223 7.0 17.0 0.00 0.09 0.09 51 1004.8
20260504190050 51 229 10.0 17.0 0.00 0.09 0.09 48 1004.7
20260504184544 52 217 9.0 19.0 0.00 0.09 0.09 51 1004.8
20260504183136 53 245 13.0 18.0 0.00 0.09 0.09 51 1004.7
20260504181538 54 223 11.0 16.0 0.00 0.09 0.09 46 1004.6
20260504180036 54 248 11.0 18.0 0.00 0.09 0.09 45 1004.7
20260504174539 55 241 12.0 19.0 0.00 0.09 0.09 47 1004.7
20260504173137 55 244 13.0 24.0 0.00 0.09 0.09 47 1004.6
20260504171544 56 248 13.0 20.0 0.00 0.09 0.09 44 1004.7
20260504081541 50 262 8.0 12.0 0.00 0.09 0.09 89 1003.7
20260504044542 48 180 3.0 6.0 0.01 0.09 0.09 99 1003.7
20260504043137 47 184 4.0 6.0 0.02 0.09 0.09 99 1003.8
20260504041638 47 173 4.0 6.0 0.03 0.09 0.09 99 1003.9
20260504040042 47 163 3.0 6.0 0.03 0.09 0.09 98 1004.0
20260504034541 47 164 3.0 5.0 0.04 0.09 0.09 98 1004.1
20260504033037 47 181 4.0 7.0 0.03 0.07 0.07 98 1004.3
20260504031535 47 170 3.0 6.0 0.04 0.06 0.06 98 1004.3
20260504030041 47 156 4.0 8.0 0.04 0.06 0.06 98 1004.4
20260504024539 47 155 3.0 5.0 0.05 0.05 0.05 97 1004.5
20260504023038 47 154 3.0 5.0 0.04 0.04 0.04 97 1004.7
20260504021637 47 187 2.0 4.0 0.02 0.02 0.02 97 1004.8
20260504020041 47 162 2.0 6.0 0.02 0.02 0.02 97 1004.9
20260504014550 47 138 3.0 6.0 0.00 0.00 0.00 97 1005.0
20260504013037 47 150 3.0 5.0 0.00 0.00 0.00 96 1005.0
20260504011635 47 160 1.0 4.0 0.00 0.00 0.00 97 1005.3